Home   Weather   Peterborough   Past weeks

Flag for Canada Past Weather in Peterborough, Ontario, Canada — Yesterday and Last 2 Weeks

Now
59 °F

Sunny.


Feels Like: 58 °F
Forecast: N/A
Wind: 7 mph from South

Location: Peterborough Airport

Current Time: Sep 25, 2016 at 6:41:14 PM

Latest Report: Sep 25, 2016 at 6:00 PM


Visibility: 9 mi

Pressure: 30.19 "Hg

Humidity: 55%

Dew Point: 43 °F

Location of PeterboroughLocation

Past Weather in Peterborough — Graph

°F

Peterborough Temperature Yesterday

Maximum temperature yesterday: 64 °F (at 4:00 PM)
Minimum temperature yesterday: 32 °F (at 7:00 AM)
Average temperature yesterday: 48 °F

High & Low Weather Summary for the Past Weeks

 TemperatureHumidityPressure
High82 °F (Sep 10, 5:00 PM)100% (Sep 11, 10:00 PM)30.39 "Hg (Sep 11, 10:00 PM)
Low30 °F (Sep 25, 6:00 AM)31% (Sep 20, 6:00 PM)29.67 "Hg (Sep 10, 6:00 PM)
Average59 °F80%30.11 "Hg
* Reported Sep 10 5:00 PM — Sep 25 5:00 PM, Peterborough, Weather by CustomWeather, © 2016

Note: Actual official high and low records may vary slightly from our data, if they occured in-between our weather recording intervals... More about our weather records

Advertising

Peterborough Weather History for the Previous 24 Hours

Scroll right to see more
 ConditionsComfort  
Time TempWeatherWind HumidityBarometerVisibility
5:00 PM
Sun, Sep 25
63 °FSunny.2 mph37%30.19 "Hg9 mi
4:00 PM64 °FSunny.5 mph34%30.21 "Hg9 mi
3:00 PM63 °FSunny.8 mph34%30.23 "Hg9 mi
2:00 PM63 °FSunny.6 mph34%30.25 "Hg9 mi
1:00 PM61 °FSunny.2 mph34%30.27 "Hg9 mi
12:00 PM57 °FSunny.3 mph39%30.28 "Hg9 mi
11:00 AM55 °FSunny.5 mph51%30.29 "Hg9 mi
10:00 AM52 °FSunny.7 mph62%30.30 "Hg9 mi
9:00 AM43 °FSunny.No wind100%30.31 "Hg9 mi
8:00 AM32 °FSunny.No wind100%30.30 "Hg9 mi
7:00 AM30 °FClear.No wind100%30.29 "Hg9 mi
6:00 AM30 °FClear.No wind100%30.28 "Hg9 mi
5:00 AM32 °FClear.3 mph93%30.28 "Hg9 mi
4:58 AM32 °FClear.3 mph100%30.27 "Hg9 mi
4:00 AM34 °FClear.No wind100%30.28 "Hg9 mi
3:04 AM36 °FFog.No wind100%30.29 "Hg2 mi
2:56 AM36 °FFog.No wind100%30.29 "Hg1 mi
2:00 AM36 °FFog.No wind100%30.28 "Hg1 mi
1:00 AM37 °FFog.No wind100%30.28 "Hg1 mi
12:55 AM37 °FFog.No wind100%30.28 "Hg1 mi
12:00 AM39 °FClear.No wind100%30.27 "Hg9 mi
11:00 PM
Sat, Sep 24
39 °FClear.No wind93%30.26 "Hg9 mi
10:00 PM43 °FClear.2 mph93%30.24 "Hg9 mi
9:00 PM45 °FClear.No wind93%30.24 "Hg9 mi
8:00 PM46 °FClear.2 mph87%30.23 "Hg9 mi
7:00 PM57 °FSunny.3 mph59%30.22 "Hg9 mi
6:00 PM63 °FSunny.7 mph42%30.22 "Hg9 mi
Weather by CustomWeather, © 2016

See weather overviewHow to use our weather pages